[[{"header":{"parameterUnit":"m.s-1","parameterCategory":2,"la1":30.2991,"la2":30.254,"lo1":-89.0895,"lo2":-89.0444,"dy":0.0017,"dx":0.0017,"nx":28,"ny":28,"refTime":"2023-09-19T21:00:00:Z","depth":"0","parameterNumber":2,"parameterNumberName":"U-component_of_CURRENTS"},"data":[0,0,0,0,0,0,0,0,0,0,0,0,0,0,0,0,0,0,0,0,0,0,0,0,0,0,0,0,0,0,0,0,0,0,0,0,0,0,0,0,0,0,0,0,0,0,0,0,0,0,0,0,0,0,0,0,0,0,-0.2872,-0.2873,0,-0.2886,-0.2886,-0.2886,-0.2853,-0.2852,-0.2851,-0.2851,-0.2797,-0.2796,-0.2795,0,0,0,0,0,0,0,0,0,0,0,0,0,-0.2793,-0.2794,-0.2872,-0.2873,-0.2874,-0.2886,-0.2886,-0.2886,-0.2853,-0.2852,-0.2851,-0.285,-0.2797,-0.2796,-0.2795,0,0,0,0,0,0,0,0,0,0,0,0,0,-0.2815,-0.2795,-0.2872,-0.2862,-0.2861,-0.2886,-0.2886,-0.2886,-0.2853,-0.2852,-0.2851,-0.285,-0.2797,-0.2796,-0.2795,-0.2807,0,0,-0.2791,-0.279,0,0,0,0,0,0,0,0,-0.2814,-0.2817,-0.2863,-0.2863,-0.2862,-0.287,-0.2838,-0.2857,-0.2853,-0.2852,-0.2851,-0.285,-0.2819,-0.2815,-0.2815,-0.2804,-0.2802,-0.2791,-0.279,-0.279,-0.2789,0,0,0,0,0,0,0,-0.2812,-0.2816,-0.2873,-0.2864,-0.2863,-0.2848,-0.285,-0.2841,-0.2836,-0.2852,-0.285,-0.2859,-0.2817,-0.2816,-0.2813,-0.2801,-0.2791,-0.279,-0.2789,-0.2788,-0.2815,-0.2816,0,0,0,0,0,0,-0.2822,-0.2815,-0.2873,-0.2874,-0.284,-0.2851,-0.2853,-0.2865,-0.2837,-0.2834,-0.286,-0.2858,-0.2819,-0.2815,-0.2811,-0.2837,-0.279,-0.2788,-0.2788,-0.2814,-0.2815,-0.2817,0,0,0,0,0,0,-0.282,-0.2827,-0.2873,-0.2848,-0.2853,-0.2854,-0.2868,-0.2866,-0.2864,-0.2845,-0.2839,-0.286,-0.2818,-0.2813,-0.2813,-0.2834,-0.2788,-0.2787,-0.2812,-0.2814,-0.2816,-0.288,0,0,0,0,0,0,-0.2818,-0.2827,-0.2832,-0.2849,-0.2855,-0.2898,-0.2869,-0.2867,-0.2873,-0.287,-0.2844,-0.2838,-0.2817,-0.2816,-0.2812,-0.2832,-0.2786,-0.281,-0.2813,-0.2815,-0.2877,-0.2885,-0.2891,0,0,0,0,0,-0.2815,-0.2834,-0.2833,-0.2839,-0.2866,-0.29,-0.2902,-0.2895,-0.2874,-0.2885,-0.2866,-0.2838,-0.283,-0.2816,-0.2811,-0.2831,-0.2809,-0.2812,-0.2815,-0.2873,-0.2883,-0.2891,0,0,0,0,0,0,-0.2798,-0.2833,-0.2832,-0.2858,-0.2882,-0.2896,-0.2903,-0.29,-0.2893,-0.2883,-0.2854,-0.2848,-0.2857,-0.2839,-0.2824,-0.2849,-0.2816,-0.2819,-0.2862,-0.2871,-0.2878,-0.2876,-0.2785,0,0,0,0,0,-0.28,-0.2822,-0.2854,-0.2872,-0.2886,-0.2893,-0.2902,-0.2904,-0.2906,-0.2902,-0.2885,-0.2871,-0.287,-0.2865,-0.2859,-0.2871,-0.2841,-0.2883,-0.289,-0.2897,-0.2894,-0.2877,-0.2882,-0.2828,-0.2828,-0.2827,0,0,-0.2796,-0.2819,-0.2829,-0.287,-0.2881,-0.2914,-0.2895,-0.2918,-0.2939,-0.2897,-0.2908,-0.2895,-0.288,-0.2895,-0.2897,-0.288,-0.2898,-0.2901,-0.2906,-0.29,-0.2881,-0.2886,-0.2891,-0.283,-0.2829,-0.2829,0,0,-0.2807,-0.2824,-0.2847,-0.2877,-0.2911,-0.2924,-0.2935,-0.2956,-0.2957,-0.2976,-0.2952,-0.295,-0.2947,-0.2942,-0.2939,-0.2985,-0.2939,-0.2988,-0.3021,-0.3006,-0.3009,-0.3012,-0.2981,-0.2981,-0.299,-0.299,-0.2991,0,-0.2799,-0.2836,-0.2858,-0.2896,-0.292,-0.2933,-0.2967,-0.2983,-0.2999,-0.3001,-0.2987,-0.2984,-0.297,-0.2986,-0.3006,-0.3,-0.2978,-0.2986,-0.3014,-0.3016,-0.3018,-0.2985,-0.2984,-0.2994,-0.2994,-0.2993,-0.2993,0,-0.2833,-0.2864,-0.2883,-0.2935,-0.2967,-0.2999,-0.3036,-0.3054,-0.3053,-0.306,-0.3071,-0.3057,-0.3048,-0.3056,-0.3045,-0.3062,-0.3037,-0.3025,-0.2987,-0.3027,-0.2991,-0.2988,-0.2999,-0.2998,-0.2997,-0.2996,0,0,-0.2799,-0.2889,-0.2891,-0.2921,-0.2989,-0.3016,-0.3064,-0.3101,-0.3117,-0.3127,-0.3138,-0.3146,-0.3124,-0.3119,-0.3106,-0.31,-0.3099,-0.3074,-0.3072,-0.3037,-0.3054,-0.2995,-0.2986,-0.3092,-0.3092,-0.3092,-0.3022,0,-0.281,-0.288,-0.2925,-0.2985,-0.3023,-0.3065,-0.3109,-0.3145,-0.3161,-0.3177,-0.3167,-0.317,-0.3154,-0.3146,-0.3143,-0.3111,-0.3096,-0.3118,-0.3026,-0.3023,-0.296,-0.2983,-0.29,-0.2827,-0.3019,-0.3019,-0.3018,0,-0.2814,-0.2866,-0.2926,-0.301,-0.3029,-0.3067,-0.3123,-0.3162,-0.3199,-0.3209,-0.3213,-0.3205,-0.3203,-0.318,-0.3137,-0.3153,-0.3107,-0.3079,-0.3076,-0.2994,-0.2959,-0.2819,-0.2815,-0.2801,-0.3014,-0.3014,-0.3015,0,-0.2763,-0.2857,-0.29,-0.2933,-0.3034,-0.3058,-0.31,-0.3155,-0.3182,-0.3215,-0.3231,-0.3228,-0.3216,-0.3177,-0.3122,-0.3129,-0.3064,-0.306,-0.296,-0.2955,-0.2851,-0.2836,-0.2814,-0.3019,-0.3019,-0.3019,-0.302,0,-0.275,-0.2781,-0.2877,-0.2903,-0.2942,-0.3026,-0.3057,-0.3104,-0.3165,-0.3184,-0.3227,-0.3229,-0.3217,-0.3183,-0.3128,-0.3031,-0.306,-0.2962,-0.2935,-0.2872,-0.286,-0.2816,-0.2829,-0.3017,-0.3017,-0.3018,-0.3018,0,-0.2674,-0.2746,-0.2792,-0.2892,-0.2916,-0.2933,-0.3019,-0.3053,-0.3123,-0.315,-0.3162,-0.3221,-0.3177,-0.3148,-0.3078,-0.3025,-0.2892,-0.2899,-0.282,-0.2785,-0.2682,-0.2701,-0.2607,-0.2531,-0.2779,-0.2777,-0.2776,0,-0.2638,-0.2656,-0.2745,-0.2765,-0.2803,-0.2849,-0.289,-0.2995,-0.3039,-0.3124,-0.3136,-0.3139,-0.3109,-0.3008,-0.2919,-0.2809,-0.2798,-0.2679,-0.2679,-0.2662,-0.2664,-0.2663,-0.2606,-0.2565,-0.2561,-0.2559,-0.2557,0,-0.2549,-0.2575,-0.261,-0.2655,-0.2698,-0.2736,-0.2806,-0.2836,-0.2954,-0.2996,-0.3023,-0.3008,-0.2957,-0.2829,-0.2724,-0.2645,-0.2623,-0.2622,-0.2625,-0.2511,-0.2486,-0.2404,-0.2625,-0.2534,-0.2536,-0.2538,-0.2539,-0.254,-0.2449,-0.2446,-0.2489,-0.2511,-0.2562,-0.2582,-0.2559,-0.2661,-0.2689,-0.2715,-0.2817,-0.2776,-0.2765,-0.2607,-0.2533,-0.2408,-0.243,-0.235,-0.2378,-0.238,-0.2301,-0.2468,-0.234,-0.2341,-0.2342,-0.2343,-0.2344,0,-0.2313,-0.2327,-0.2348,-0.2366,-0.2351,-0.2425,-0.247,-0.2425,-0.24,-0.2501,-0.2497,-0.2514,-0.2409,-0.2401,-0.2299,-0.2203,-0.2144,-0.2158,-0.2151,-0.2104,-0.2261,-0.2248,-0.2068,-0.2068,-0.2068,-0.2068,-0.2068,-0.2069,-0.2244,-0.2206,-0.2217,-0.2128,-0.214,-0.2054,-0.2031,-0.2004,-0.2037,-0.2022,-0.2082,-0.2181,-0.2206,-0.2349,-0.2224,-0.2124,-0.2064,-0.2001,-0.2004,-0.2155,-0.2176,-0.2197,-0.2188,-0.1999,-0.1999,-0.1782,-0.178,-0.1779]},{"header":{"parameterUnit":"m.s-1","parameterCategory":2,"la1":30.2991,"la2":30.254,"lo1":-89.0895,"lo2":-89.0444,"dy":0.0017,"dx":0.0017,"nx":28,"ny":28,"refTime":"2023-09-19T21:00:00:Z","depth":"0","parameterNumber":3,"parameterNumberName":"V-component_of_CURRENTS"},"data":[0,0,0,0,0,0,0,0,0,0,0,0,0,0,0,0,0,0,0,0,0,0,0,0,0,0,0,0,0,0,0,0,0,0,0,0,0,0,0,0,0,0,0,0,0,0,0,0,0,0,0,0,0,0,0,0,0,0,-0.0292,-0.0291,0,-0.0195,-0.0194,-0.0193,-0.0129,-0.0129,-0.0129,-0.0128,0.0006,0.0009,0.0012,0,0,0,0,0,0,0,0,0,0,0,0,0,-0.0357,-0.0356,-0.0292,-0.0291,-0.029,-0.0195,-0.0194,-0.0192,-0.0129,-0.0129,-0.0128,-0.0128,0.0005,0.0009,0.0013,0,0,0,0,0,0,0,0,0,0,0,0,0,-0.03,-0.0356,-0.0293,-0.0248,-0.0244,-0.0195,-0.0194,-0.0192,-0.0129,-0.0129,-0.0128,-0.0128,0.0003,0.0008,0.0013,0.0036,0,0,0.0028,0.003,0,0,0,0,0,0,0,0,-0.0303,-0.0298,-0.0256,-0.0251,-0.0246,-0.0175,-0.0167,-0.0114,-0.0129,-0.0171,-0.0128,-0.0128,-0.0053,-0.0043,-0.0024,0.0042,0.0048,0.0029,0.0032,0.0034,0.0035,0,0,0,0,0,0,0,-0.0307,-0.0301,-0.0252,-0.0255,-0.0249,-0.0211,-0.0203,-0.0157,-0.0113,-0.0167,-0.0163,-0.0155,-0.0049,-0.0029,-0.002,0.005,0.0029,0.0033,0.0036,0.0038,0.0145,0.0145,0,0,0,0,0,0,-0.0326,-0.0305,-0.0255,-0.025,-0.0276,-0.021,-0.0201,-0.0197,-0.0115,-0.0102,-0.0155,-0.0152,-0.0038,-0.0026,-0.0015,0.0021,0.0034,0.0038,0.0041,0.0146,0.0145,0.0145,0,0,0,0,0,0,-0.0328,-0.0323,-0.0259,-0.0276,-0.0265,-0.021,-0.0206,-0.0195,-0.0175,-0.0106,-0.0093,-0.0146,-0.0037,-0.0022,0.0026,0.0026,0.0041,0.0045,0.0146,0.0145,0.0145,0.009,0,0,0,0,0,0,-0.0331,-0.0324,-0.033,-0.0278,-0.0265,-0.0241,-0.0206,-0.0194,-0.0171,-0.0166,-0.0094,-0.0081,-0.0035,0.0018,0.0031,0.0033,0.0049,0.0146,0.0146,0.0145,0.0092,0.0088,0.0084,0,0,0,0,0,-0.0333,-0.035,-0.0331,-0.0325,-0.0274,-0.0241,-0.0232,-0.0189,-0.0172,-0.0169,-0.0114,-0.0083,0.0026,0.0023,0.0038,0.0041,0.0146,0.0146,0.0145,0.0094,0.0089,0.0085,0,0,0,0,0,0,-0.0381,-0.0344,-0.0322,-0.0326,-0.0289,-0.0232,-0.0227,-0.0196,-0.015,-0.0146,-0.0078,-0.0061,-0.0021,0.0016,0.0011,0.007,0.0088,0.0091,0.0044,0.004,0.0036,0.0024,0.0053,0,0,0,0,0,-0.0395,-0.0396,-0.0349,-0.035,-0.0337,-0.0282,-0.0264,-0.0235,-0.0187,-0.0167,-0.0115,-0.006,-0.0011,0.0018,0.0063,0.01,0.0145,0.0109,0.0105,0.0102,0.0101,0.017,0.0172,0.0144,0.0144,0.0144,0,0,-0.0414,-0.0392,-0.0393,-0.0359,-0.0327,-0.0316,-0.027,-0.025,-0.0233,-0.016,-0.0124,-0.0072,-0.0006,0.0035,0.0056,0.0067,0.0133,0.0101,0.0098,0.0099,0.017,0.0173,0.0175,0.0144,0.0144,0.0144,0,0,-0.0458,-0.0433,-0.0451,-0.0422,-0.0384,-0.0347,-0.0346,-0.0291,-0.0261,-0.022,-0.0163,-0.011,-0.0042,0.0014,0.0049,0.0052,0.0107,0.0059,0.0037,0.0103,0.0107,0.011,0.0167,0.0176,0.0061,0.0061,0.0061,0,-0.0483,-0.0494,-0.0449,-0.0451,-0.0434,-0.0367,-0.0374,-0.0332,-0.0266,-0.0237,-0.0221,-0.0102,-0.0049,0.0019,0.0019,0.0044,0.0086,0.0049,0.0099,0.0103,0.0107,0.0166,0.0176,0.0058,0.0058,0.0059,0.0059,0,-0.0531,-0.0537,-0.0543,-0.0522,-0.0495,-0.0491,-0.0427,-0.0396,-0.0352,-0.03,-0.023,-0.015,-0.0079,-0.0054,-0.0014,0.0043,0.0063,0.0083,0.0109,0.0107,0.0168,0.018,0.0054,0.0055,0.0056,0.0057,0,0,-0.0598,-0.0585,-0.0586,-0.0591,-0.0533,-0.0521,-0.0484,-0.0431,-0.0402,-0.0329,-0.0282,-0.0191,-0.014,-0.0098,-0.0035,0.0028,0.0094,0.0061,0.0066,0.0115,0.0236,0.0282,0.03,0.0122,0.0123,0.0125,0.0265,0,-0.0651,-0.0686,-0.0652,-0.067,-0.0681,-0.0603,-0.057,-0.0505,-0.0437,-0.0373,-0.027,-0.0205,-0.0158,-0.0122,-0.0053,0.0061,0.0123,0.0053,0.0233,0.0238,0.0278,0.0315,0.0364,0.0496,0.0277,0.0279,0.028,0,-0.0707,-0.0723,-0.0761,-0.0745,-0.074,-0.073,-0.0661,-0.0624,-0.0505,-0.045,-0.0359,-0.0272,-0.0159,-0.0128,0.0063,0.0016,0.0113,0.02,0.0208,0.028,0.0307,0.0465,0.0527,0.0687,0.0299,0.0298,0.0296,0,-0.078,-0.0796,-0.0834,-0.0827,-0.0794,-0.0785,-0.0753,-0.0648,-0.0612,-0.0494,-0.0449,-0.0304,-0.0222,-0.0085,0.0099,0.0081,0.0311,0.0311,0.0446,0.045,0.0543,0.0553,0.0781,0.0437,0.0437,0.0436,0.0436,0,-0.0849,-0.0877,-0.0876,-0.0896,-0.0922,-0.0859,-0.0851,-0.0789,-0.0694,-0.064,-0.0501,-0.0419,-0.0206,-0.0044,0.0097,0.0321,0.0314,0.0456,0.0498,0.0524,0.053,0.0713,0.076,0.0441,0.044,0.0439,0.0438,0,-0.0921,-0.0921,-0.0969,-0.0964,-0.0962,-0.0977,-0.0935,-0.0917,-0.0813,-0.0738,-0.0702,-0.049,-0.0262,-0.0044,0.0213,0.0332,0.0638,0.0603,0.0618,0.0659,0.0911,0.095,0.1202,0.1298,0.0769,0.0771,0.0773,0,-0.0963,-0.0997,-0.1033,-0.1067,-0.1072,-0.108,-0.1077,-0.0991,-0.0956,-0.0771,-0.0736,-0.0492,-0.0299,0.0097,0.0372,0.0651,0.0758,0.0837,0.0812,0.0953,0.1028,0.105,0.1113,0.0915,0.0918,0.092,0.0922,0,-0.104,-0.1052,-0.1094,-0.1165,-0.1193,-0.1215,-0.1196,-0.1184,-0.1053,-0.095,-0.0758,-0.0584,-0.0165,0.0214,0.0582,0.0737,0.0961,0.0891,0.1051,0.1179,0.1207,0.1309,0.0782,0.0942,0.094,0.0939,0.0938,0.0937,-0.1088,-0.1143,-0.1198,-0.126,-0.1299,-0.1324,-0.1322,-0.1265,-0.1184,-0.0985,-0.0794,-0.0488,0.0078,0.0623,0.0811,0.1216,0.1147,0.1318,0.136,0.1373,0.146,0.0969,0.116,0.116,0.1159,0.1158,0.1158,0,-0.1148,-0.1208,-0.1285,-0.1354,-0.1406,-0.1397,-0.1378,-0.1329,-0.1216,-0.0986,-0.0749,-0.0112,0.0421,0.0902,0.1489,0.1682,0.1716,0.1769,0.1827,0.1872,0.147,0.147,0.1721,0.1721,0.1721,0.172,0.172,0.172,-0.1181,-0.1275,-0.1319,-0.1422,-0.1464,-0.1485,-0.1465,-0.1354,-0.1177,-0.0781,-0.041,-0.0088,0.0615,0.1592,0.2109,0.2131,0.2289,0.226,0.2346,0.2075,0.2036,0.1999,0.2014,0.2375,0.2375,0.2748,0.2752,0.2755]}],[{"header":{"parameterUnit":"m.s-1","parameterCategory":2,"la1":30.2991,"la2":30.254,"lo1":-89.0895,"lo2":-89.0444,"dy":0.0017,"dx":0.0017,"nx":28,"ny":28,"refTime":"2023-09-19T21:00:00:Z","depth":"2","parameterNumber":2,"parameterNumberName":"U-component_of_CURRENTS"},"data":[0,0,0,0,0,0,0,0,0,0,0,0,0,0,0,0,0,0,0,0,0,0,0,0,0,0,0,0,0,0,0,0,0,0,0,0,0,0,0,0,0,0,0,0,0,0,0,0,0,0,0,0,0,0,0,0,0,0,-0.2665,-0.2666,0,-0.268,-0.268,-0.268,-0.2654,-0.2653,-0.2653,-0.2652,-0.2608,-0.2607,-0.2606,0,0,0,0,0,0,0,0,0,0,0,0,0,-0.2589,-0.2591,-0.2665,-0.2666,-0.2666,-0.268,-0.268,-0.268,-0.2654,-0.2653,-0.2653,-0.2652,-0.2608,-0.2607,-0.2606,0,0,0,0,0,0,0,0,0,0,0,0,0,-0.2611,-0.2591,-0.2665,-0.2658,-0.2658,-0.268,-0.268,-0.268,-0.2654,-0.2653,-0.2652,-0.2652,-0.2608,-0.2607,-0.2606,-0.2614,0,0,-0.2603,-0.2602,0,0,0,0,0,0,0,0,-0.261,-0.2613,-0.2659,-0.2659,-0.2659,-0.2668,-0.2637,-0.2656,-0.2654,-0.2651,-0.2652,-0.2651,-0.2626,-0.2623,-0.2622,-0.2612,-0.261,-0.2603,-0.2602,-0.2602,-0.2601,0,0,0,0,0,0,0,-0.2609,-0.2613,-0.2667,-0.2659,-0.2659,-0.2646,-0.2648,-0.264,-0.2638,-0.2651,-0.265,-0.2659,-0.2625,-0.2624,-0.2621,-0.261,-0.2603,-0.2602,-0.2601,-0.2601,-0.263,-0.2632,0,0,0,0,0,0,-0.2618,-0.2612,-0.2666,-0.2668,-0.2637,-0.2648,-0.265,-0.2662,-0.2639,-0.2637,-0.266,-0.2658,-0.2626,-0.2622,-0.2619,-0.265,-0.2602,-0.2601,-0.26,-0.2629,-0.2631,-0.2632,0,0,0,0,0,0,-0.2616,-0.2623,-0.2666,-0.2643,-0.2648,-0.2651,-0.2664,-0.2663,-0.2665,-0.2647,-0.2642,-0.2664,-0.2625,-0.2621,-0.2625,-0.2647,-0.26,-0.2599,-0.2627,-0.2629,-0.2631,-0.2697,0,0,0,0,0,0,-0.2614,-0.2622,-0.2629,-0.2644,-0.265,-0.2691,-0.2665,-0.2664,-0.2673,-0.2671,-0.2649,-0.2644,-0.2624,-0.2627,-0.2624,-0.2645,-0.2598,-0.2625,-0.2628,-0.2631,-0.2693,-0.2701,-0.2708,0,0,0,0,0,-0.2611,-0.2629,-0.2629,-0.2636,-0.2661,-0.2693,-0.2695,-0.2691,-0.2674,-0.2686,-0.2671,-0.2645,-0.2641,-0.2627,-0.2623,-0.2644,-0.2624,-0.2627,-0.263,-0.269,-0.2699,-0.2708,0,0,0,0,0,0,-0.2597,-0.2629,-0.2629,-0.2655,-0.2678,-0.269,-0.2699,-0.2697,-0.2695,-0.2687,-0.266,-0.2655,-0.2668,-0.2651,-0.2635,-0.2663,-0.263,-0.2632,-0.2676,-0.2685,-0.2692,-0.2691,-0.2597,0,0,0,0,0,-0.26,-0.2621,-0.265,-0.2669,-0.2682,-0.269,-0.27,-0.2703,-0.2707,-0.2704,-0.2691,-0.2679,-0.268,-0.2677,-0.2672,-0.2685,-0.2656,-0.2698,-0.2706,-0.2712,-0.271,-0.2694,-0.27,-0.2643,-0.2643,-0.2643,0,0,-0.2598,-0.2619,-0.2629,-0.2667,-0.2678,-0.271,-0.2693,-0.2717,-0.2739,-0.27,-0.2715,-0.2704,-0.269,-0.2707,-0.2711,-0.2693,-0.2715,-0.2716,-0.2722,-0.2716,-0.2698,-0.2704,-0.2708,-0.2645,-0.2644,-0.2644,0,0,-0.261,-0.2626,-0.2648,-0.2677,-0.271,-0.2723,-0.2735,-0.2756,-0.276,-0.2781,-0.2759,-0.2761,-0.276,-0.2756,-0.2753,-0.2799,-0.2756,-0.2803,-0.2837,-0.2824,-0.2828,-0.2831,-0.2803,-0.2803,-0.2806,-0.2807,-0.2807,0,-0.2605,-0.2638,-0.266,-0.2695,-0.2719,-0.2733,-0.2766,-0.2782,-0.2801,-0.2804,-0.2794,-0.2795,-0.2783,-0.28,-0.2821,-0.2814,-0.2795,-0.2803,-0.2832,-0.2834,-0.2837,-0.2807,-0.2807,-0.281,-0.281,-0.2809,-0.2809,0,-0.2637,-0.2667,-0.2685,-0.2734,-0.2765,-0.2796,-0.2832,-0.2853,-0.2856,-0.2864,-0.2879,-0.2867,-0.2862,-0.2871,-0.286,-0.2879,-0.2856,-0.2842,-0.2806,-0.2846,-0.2813,-0.2811,-0.2815,-0.2814,-0.2813,-0.2812,0,0,-0.2607,-0.269,-0.2693,-0.2722,-0.2787,-0.2813,-0.2861,-0.2899,-0.2916,-0.2931,-0.2944,-0.2955,-0.2938,-0.2934,-0.2922,-0.2918,-0.2921,-0.2894,-0.2891,-0.286,-0.2881,-0.2821,-0.2812,-0.2914,-0.2914,-0.2914,-0.2852,0,-0.2618,-0.2684,-0.2726,-0.2784,-0.2819,-0.2861,-0.2904,-0.2941,-0.296,-0.2979,-0.2973,-0.298,-0.2967,-0.2963,-0.2961,-0.2932,-0.2919,-0.2938,-0.2851,-0.2848,-0.2785,-0.2809,-0.2608,-0.2532,-0.285,-0.2849,-0.2849,0,-0.2623,-0.2671,-0.2728,-0.2807,-0.2825,-0.2864,-0.292,-0.2959,-0.2999,-0.3012,-0.3021,-0.3016,-0.3018,-0.2997,-0.2961,-0.2974,-0.2933,-0.2907,-0.2903,-0.2819,-0.2784,-0.2543,-0.2516,-0.2845,-0.2845,-0.2846,-0.2846,0,-0.2575,-0.2664,-0.2705,-0.2736,-0.2832,-0.2858,-0.29,-0.2956,-0.2982,-0.3021,-0.3038,-0.3041,-0.3034,-0.2998,-0.2949,-0.2955,-0.2896,-0.2891,-0.2794,-0.2788,-0.2584,-0.2561,-0.2855,-0.2855,-0.2855,-0.2855,-0.2855,0,-0.2563,-0.2593,-0.2684,-0.271,-0.2748,-0.2829,-0.2863,-0.291,-0.2972,-0.2991,-0.3038,-0.3042,-0.3036,-0.3006,-0.2955,-0.2863,-0.2893,-0.2796,-0.277,-0.2603,-0.2583,-0.2829,-0.2827,-0.2853,-0.2853,-0.2854,-0.2854,0,-0.2492,-0.256,-0.2604,-0.27,-0.2725,-0.2743,-0.2828,-0.2861,-0.2933,-0.2961,-0.2975,-0.3035,-0.2998,-0.2973,-0.291,-0.2858,-0.2783,-0.2738,-0.2541,-0.2493,-0.2682,-0.2685,-0.2627,-0.2624,-0.2622,-0.262,-0.2619,0,-0.2458,-0.2475,-0.256,-0.258,-0.2618,-0.2665,-0.2705,-0.2808,-0.2849,-0.2935,-0.2945,-0.2955,-0.2924,-0.2831,-0.2732,-0.2626,-0.2703,-0.2399,-0.238,-0.268,-0.266,-0.2666,-0.2671,-0.213,-0.2124,-0.212,-0.2116,0,-0.2373,-0.24,-0.2433,-0.2476,-0.2519,-0.2553,-0.2621,-0.2648,-0.2763,-0.2802,-0.2827,-0.2812,-0.2755,-0.2564,-0.2461,-0.2372,-0.2406,-0.2307,-0.2646,-0.2236,-0.221,-0.2192,-0.2213,-0.2077,-0.2081,-0.2083,-0.2086,-0.2087,-0.228,-0.2276,-0.2317,-0.2339,-0.2388,-0.2403,-0.2378,-0.2468,-0.2489,-0.249,-0.2599,-0.2504,-0.2495,-0.2224,-0.2104,-0.2005,-0.2165,-0.2066,-0.2079,-0.2097,-0.2069,-0.2042,-0.187,-0.1873,-0.1875,-0.1877,-0.1879,0,-0.2147,-0.2162,-0.2181,-0.2197,-0.2179,-0.2254,-0.229,-0.2226,-0.2188,-0.2231,-0.2208,-0.1977,-0.1873,-0.1859,-0.165,-0.1624,-0.1598,-0.1556,-0.1522,-0.1562,-0.1598,-0.1544,-0.1206,-0.1204,-0.1202,-0.12,0,0,-0.2081,-0.2042,-0.2049,-0.196,-0.1974,-0.1881,-0.1856,-0.179,-0.1771,-0.1653,-0.1609,-0.1738,-0.1803,-0.1501,-0.1437,-0.1286,-0.1405,-0.1221,-0.176,-0.1758,-0.1791,-0.189,-0.1853,0,0,0,0,0]},{"header":{"parameterUnit":"m.s-1","parameterCategory":2,"la1":30.2991,"la2":30.254,"lo1":-89.0895,"lo2":-89.0444,"dy":0.0017,"dx":0.0017,"nx":28,"ny":28,"refTime":"2023-09-19T21:00:00:Z","depth":"2","parameterNumber":3,"parameterNumberName":"V-component_of_CURRENTS"},"data":[0,0,0,0,0,0,0,0,0,0,0,0,0,0,0,0,0,0,0,0,0,0,0,0,0,0,0,0,0,0,0,0,0,0,0,0,0,0,0,0,0,0,0,0,0,0,0,0,0,0,0,0,0,0,0,0,0,0,-0.0309,-0.0308,0,-0.0217,-0.0215,-0.0214,-0.0154,-0.0154,-0.0154,-0.0153,-0.0025,-0.0022,-0.0019,0,0,0,0,0,0,0,0,0,0,0,0,0,-0.037,-0.0369,-0.0309,-0.0308,-0.0307,-0.0217,-0.0215,-0.0214,-0.0154,-0.0154,-0.0154,-0.0153,-0.0026,-0.0022,-0.0019,0,0,0,0,0,0,0,0,0,0,0,0,0,-0.0316,-0.0369,-0.0309,-0.0267,-0.0263,-0.0217,-0.0215,-0.0214,-0.0154,-0.0154,-0.0154,-0.0153,-0.0027,-0.0023,-0.0018,0.0004,0,0,-0.0003,-0.0001,0,0,0,0,0,0,0,0,-0.0319,-0.0314,-0.0275,-0.027,-0.0265,-0.0198,-0.019,-0.0139,-0.0154,-0.0194,-0.0153,-0.0153,-0.0081,-0.0072,-0.0053,0.001,0.0016,-0.0003,-0.0,0.0002,0.0003,0,0,0,0,0,0,0,-0.0323,-0.0317,-0.0271,-0.0274,-0.0268,-0.0231,-0.0224,-0.018,-0.0139,-0.019,-0.0186,-0.0178,-0.0078,-0.0058,-0.005,0.0018,-0.0003,0.0001,0.0004,0.0006,0.011,0.0109,0,0,0,0,0,0,-0.0341,-0.0321,-0.0274,-0.0268,-0.0293,-0.0231,-0.0222,-0.0219,-0.014,-0.0128,-0.0179,-0.0176,-0.0067,-0.0056,-0.0045,-0.001,0.0002,0.0006,0.0009,0.011,0.011,0.0109,0,0,0,0,0,0,-0.0343,-0.0338,-0.0278,-0.0293,-0.0283,-0.0231,-0.0227,-0.0217,-0.0198,-0.0132,-0.0119,-0.017,-0.0066,-0.0052,-0.0005,-0.0004,0.0009,0.0013,0.011,0.011,0.0109,0.0058,0,0,0,0,0,0,-0.0345,-0.0339,-0.0345,-0.0295,-0.0283,-0.026,-0.0227,-0.0216,-0.0194,-0.0189,-0.012,-0.0108,-0.0064,-0.0012,-0.0,0.0002,0.0017,0.011,0.011,0.011,0.006,0.0056,0.0053,0,0,0,0,0,-0.0348,-0.0364,-0.0346,-0.034,-0.0292,-0.026,-0.0251,-0.0211,-0.0194,-0.0191,-0.0139,-0.011,-0.0005,-0.0008,0.0006,0.001,0.011,0.011,0.011,0.0062,0.0057,0.0053,0,0,0,0,0,0,-0.0392,-0.0357,-0.0337,-0.0341,-0.0306,-0.0251,-0.0247,-0.0217,-0.0174,-0.0169,-0.0105,-0.0089,-0.005,-0.0014,-0.0019,0.0038,0.0055,0.0057,0.0013,0.001,0.0006,-0.0006,0.0021,0,0,0,0,0,-0.0406,-0.0406,-0.0362,-0.0363,-0.0351,-0.0298,-0.0281,-0.0254,-0.0209,-0.0189,-0.0139,-0.0087,-0.004,-0.0012,0.0031,0.0067,0.0109,0.0076,0.0073,0.0069,0.0068,0.0134,0.0137,0.0109,0.0109,0.0109,0,0,-0.0424,-0.0403,-0.0404,-0.0372,-0.0342,-0.033,-0.0287,-0.0268,-0.0252,-0.0182,-0.0147,-0.0098,-0.0035,0.0005,0.0025,0.0036,0.0099,0.0069,0.0066,0.0067,0.0134,0.0137,0.014,0.0108,0.0108,0.0108,0,0,-0.0464,-0.0441,-0.0458,-0.0431,-0.0394,-0.036,-0.0359,-0.0307,-0.0278,-0.0239,-0.0184,-0.0133,-0.0067,-0.0014,0.002,0.0023,0.0075,0.0029,0.001,0.0073,0.0076,0.0079,0.0133,0.0142,0.0032,0.0031,0.0031,0,-0.0488,-0.0499,-0.0457,-0.0458,-0.0442,-0.0379,-0.0386,-0.0345,-0.0283,-0.0255,-0.024,-0.0125,-0.0074,-0.0008,-0.0008,0.0016,0.0056,0.002,0.0069,0.0073,0.0077,0.0132,0.0142,0.0029,0.0029,0.003,0.003,0,-0.0534,-0.054,-0.0545,-0.0525,-0.05,-0.0496,-0.0436,-0.0406,-0.0364,-0.0315,-0.0248,-0.017,-0.0102,-0.0077,-0.0039,0.0016,0.0035,0.0054,0.0078,0.0077,0.0135,0.0146,0.0025,0.0026,0.0027,0.0028,0,0,-0.0597,-0.0585,-0.0586,-0.0592,-0.0537,-0.0526,-0.049,-0.044,-0.0413,-0.0343,-0.0299,-0.0209,-0.0161,-0.012,-0.0059,0.0002,0.0066,0.0034,0.0038,0.0085,0.0201,0.0241,0.0258,0.0093,0.0095,0.0096,0.0228,0,-0.0647,-0.0681,-0.0649,-0.0667,-0.0678,-0.0604,-0.0573,-0.0511,-0.0447,-0.0387,-0.0286,-0.0225,-0.0178,-0.0143,-0.0075,0.0034,0.0094,0.0028,0.0198,0.0203,0.0237,0.0272,0.0222,0.0338,0.024,0.0242,0.0243,0,-0.0701,-0.0717,-0.0754,-0.0741,-0.0736,-0.0727,-0.0663,-0.0629,-0.0515,-0.0463,-0.0374,-0.0291,-0.0182,-0.015,0.0035,-0.001,0.0084,0.0168,0.0175,0.0239,0.0265,0.0325,0.0363,0.0263,0.0261,0.026,0.0258,0,-0.0771,-0.0788,-0.0825,-0.0819,-0.0789,-0.0781,-0.0752,-0.0653,-0.062,-0.0507,-0.0466,-0.0324,-0.0245,-0.0111,0.0066,0.005,0.027,0.0271,0.0398,0.0401,0.0407,0.0408,0.0394,0.0394,0.0393,0.0393,0.0393,0,-0.0838,-0.0866,-0.0866,-0.0886,-0.0913,-0.0854,-0.0849,-0.0791,-0.07,-0.0652,-0.0517,-0.044,-0.0231,-0.0075,0.0063,0.0277,0.0272,0.0407,0.0446,0.0387,0.0385,0.0354,0.0348,0.0398,0.0397,0.0396,0.0395,0,-0.0908,-0.0909,-0.0956,-0.0953,-0.0953,-0.0969,-0.0931,-0.0917,-0.0819,-0.0749,-0.0715,-0.0513,-0.0295,-0.0082,0.0166,0.0283,0.0472,0.0543,0.0459,0.0487,0.0556,0.0545,0.0693,0.0696,0.0698,0.07,0.0701,0,-0.0949,-0.0982,-0.1019,-0.1053,-0.1059,-0.107,-0.107,-0.0989,-0.0958,-0.0786,-0.0753,-0.0523,-0.0341,0.0041,0.0294,0.0561,0.0555,0.0658,0.0623,0.0567,0.0591,0.0576,0.0563,0.0607,0.0608,0.0608,0.0609,0,-0.1024,-0.1036,-0.1078,-0.1149,-0.1179,-0.1203,-0.1188,-0.1179,-0.1056,-0.0962,-0.0784,-0.0622,-0.0233,0.0079,0.0428,0.0565,0.061,0.0679,0.0666,0.0536,0.0497,0.0516,0.0504,0.0614,0.0613,0.0613,0.0613,0.0612,-0.1071,-0.1126,-0.1181,-0.1243,-0.1283,-0.1311,-0.1311,-0.1259,-0.1186,-0.1,-0.083,-0.0557,-0.0237,0.0261,0.0502,0.0708,0.0707,0.0741,0.0735,0.0729,0.0693,0.066,0.08,0.0801,0.0801,0.0802,0.0802,0,-0.1131,-0.119,-0.1266,-0.1336,-0.1388,-0.1382,-0.1368,-0.132,-0.1216,-0.1011,-0.0797,-0.0445,-0.0087,0.0225,0.0565,0.0777,0.0736,0.0793,0.0699,0.0694,0.0689,0.0646,0.0743,0.0744,0.0744,0.0745,0,0,-0.1164,-0.1255,-0.1298,-0.1401,-0.1446,-0.1468,-0.1452,-0.1341,-0.1184,-0.0962,-0.0751,-0.0453,-0.0072,0.016,0.0429,0.0598,0.0583,0.0599,0.0623,0.0476,0.0468,0.0638,0.0564,0,0,0,0,0]}],[{"header":{"parameterUnit":"m.s-1","parameterCategory":2,"la1":30.2991,"la2":30.254,"lo1":-89.0895,"lo2":-89.0444,"dy":0.0017,"dx":0.0017,"nx":28,"ny":28,"refTime":"2023-09-19T21:00:00:Z","depth":"4","parameterNumber":2,"parameterNumberName":"U-component_of_CURRENTS"},"data":[0,0,0,0,0,0,0,0,0,0,0,0,0,0,0,0,0,0,0,0,0,0,0,0,0,0,0,0,0,0,0,0,0,0,0,0,0,0,0,0,0,0,0,0,0,0,0,0,0,0,0,0,0,0,0,0,0,0,-0.1823,-0.1824,0,-0.1885,-0.1885,-0.1885,-0.1925,-0.1926,-0.1926,-0.1927,-0.1974,-0.1974,-0.1975,0,0,0,0,0,0,0,0,0,0,0,0,0,-0.1723,-0.1724,-0.1823,-0.1824,-0.1825,-0.1884,-0.1885,-0.1886,-0.1925,-0.1926,-0.1926,-0.1927,-0.1973,-0.1974,-0.1975,0,0,0,0,0,0,0,0,0,0,0,0,0,-0.1771,-0.1725,-0.1823,-0.1854,-0.1858,-0.1884,-0.1885,-0.1886,-0.1925,-0.1926,-0.1926,-0.1927,-0.1973,-0.1974,-0.1975,-0.1967,0,0,-0.1979,-0.1979,0,0,0,0,0,0,0,0,-0.1768,-0.1774,-0.1848,-0.1852,-0.1856,-0.1901,-0.1867,-0.1913,-0.1925,-0.1896,-0.1927,-0.1927,-0.1949,-0.1952,-0.1958,-0.1969,-0.1971,-0.1979,-0.198,-0.198,-0.198,0,0,0,0,0,0,0,-0.1765,-0.1771,-0.1844,-0.1849,-0.1854,-0.1859,-0.1867,-0.1876,-0.1915,-0.1899,-0.1903,-0.1914,-0.1951,-0.1957,-0.196,-0.1972,-0.1979,-0.198,-0.1981,-0.1981,-0.2074,-0.2075,0,0,0,0,0,0,-0.1763,-0.1768,-0.1842,-0.1846,-0.1816,-0.1861,-0.1869,-0.1883,-0.1915,-0.1922,-0.1913,-0.1915,-0.1955,-0.1958,-0.1961,-0.2044,-0.198,-0.1981,-0.1982,-0.2072,-0.2074,-0.2076,0,0,0,0,0,0,-0.1761,-0.1769,-0.184,-0.1811,-0.1821,-0.1862,-0.1877,-0.1884,-0.1924,-0.1927,-0.1933,-0.1951,-0.1955,-0.196,-0.2004,-0.2042,-0.1982,-0.1983,-0.207,-0.2072,-0.2075,-0.215,0,0,0,0,0,0,-0.1758,-0.1768,-0.1791,-0.1811,-0.1822,-0.1882,-0.1877,-0.1885,-0.1929,-0.1934,-0.1961,-0.1964,-0.1956,-0.2003,-0.2006,-0.2043,-0.1984,-0.2067,-0.2071,-0.2074,-0.2145,-0.2155,-0.2163,0,0,0,0,0,-0.1754,-0.178,-0.1792,-0.1802,-0.1849,-0.1884,-0.1891,-0.192,-0.1931,-0.1957,-0.1978,-0.1965,-0.2026,-0.2005,-0.2008,-0.2046,-0.2066,-0.207,-0.2074,-0.2141,-0.2153,-0.2163,0,0,0,0,0,0,-0.175,-0.1787,-0.1801,-0.1838,-0.1872,-0.1893,-0.1923,-0.194,-0.1976,-0.1989,-0.1987,-0.1992,-0.2044,-0.2036,-0.2014,-0.2083,-0.2044,-0.2049,-0.2094,-0.2105,-0.2114,-0.2106,-0.1985,0,0,0,0,0,-0.1759,-0.1791,-0.1823,-0.1857,-0.1876,-0.1905,-0.1928,-0.1951,-0.1979,-0.1997,-0.2017,-0.2037,-0.2056,-0.2075,-0.2088,-0.2127,-0.2099,-0.2154,-0.2163,-0.2171,-0.2167,-0.216,-0.2167,-0.2089,-0.2089,-0.2089,0,0,-0.1767,-0.1793,-0.1812,-0.1859,-0.1885,-0.1923,-0.1922,-0.197,-0.2009,-0.1995,-0.206,-0.207,-0.2073,-0.2118,-0.2141,-0.2122,-0.218,-0.2176,-0.2182,-0.2174,-0.2165,-0.2172,-0.2179,-0.2092,-0.2091,-0.2091,0,0,-0.1788,-0.1823,-0.1853,-0.1887,-0.1939,-0.1959,-0.1981,-0.2025,-0.2056,-0.2111,-0.2112,-0.2145,-0.2183,-0.219,-0.2196,-0.2261,-0.2226,-0.2276,-0.2318,-0.2312,-0.2318,-0.2323,-0.23,-0.2302,-0.2283,-0.2283,-0.2283,0,-0.18,-0.1838,-0.1869,-0.1907,-0.1941,-0.1979,-0.202,-0.2056,-0.2113,-0.2136,-0.2147,-0.2203,-0.2212,-0.2249,-0.2278,-0.228,-0.2266,-0.2277,-0.2322,-0.2327,-0.233,-0.2305,-0.2306,-0.2287,-0.2286,-0.2286,-0.2286,0,-0.183,-0.1878,-0.1901,-0.196,-0.2002,-0.2047,-0.2097,-0.2147,-0.2188,-0.2214,-0.2274,-0.2289,-0.2315,-0.2334,-0.233,-0.2369,-0.2346,-0.2332,-0.2291,-0.2342,-0.2313,-0.2313,-0.2293,-0.2291,-0.229,-0.2289,0,0,-0.1806,-0.1903,-0.1914,-0.1953,-0.2037,-0.2068,-0.2143,-0.2203,-0.2245,-0.2303,-0.2345,-0.2393,-0.2398,-0.2405,-0.2408,-0.2415,-0.2434,-0.2396,-0.2393,-0.2365,-0.2414,-0.2266,-0.2251,-0.2432,-0.2433,-0.2433,-0.2384,0,-0.1821,-0.1894,-0.1945,-0.2024,-0.2064,-0.2131,-0.2192,-0.2255,-0.2306,-0.2358,-0.2383,-0.2425,-0.2426,-0.2447,-0.2456,-0.244,-0.2438,-0.2448,-0.2375,-0.2372,-0.2228,-0.2247,-0.2435,-0.2383,-0.2383,-0.2383,-0.2383,0,-0.182,-0.1875,-0.1952,-0.2053,-0.2078,-0.2138,-0.2232,-0.2289,-0.2365,-0.2404,-0.2449,-0.2466,-0.2498,-0.2486,-0.2478,-0.2489,-0.2459,-0.244,-0.2437,-0.2268,-0.2223,-0.2321,-0.2382,-0.2382,-0.2382,-0.2382,-0.2382,0,-0.1763,-0.1874,-0.1936,-0.1974,-0.2094,-0.215,-0.2214,-0.2304,-0.2347,-0.243,-0.2462,-0.25,-0.252,-0.2502,-0.2473,-0.2482,-0.244,-0.2439,-0.2274,-0.2263,-0.2378,-0.2373,-0.2419,-0.2419,-0.2419,-0.2419,-0.2419,0,-0.1735,-0.1788,-0.1923,-0.1957,-0.2029,-0.2129,-0.2203,-0.2273,-0.2363,-0.2392,-0.2477,-0.2486,-0.2528,-0.2511,-0.2476,-0.2361,-0.2437,-0.227,-0.2237,-0.2412,-0.2412,-0.2377,-0.2373,-0.2417,-0.2418,-0.2418,-0.2418,0,-0.1649,-0.1744,-0.1818,-0.1959,-0.2003,-0.2052,-0.2182,-0.2227,-0.2333,-0.2373,-0.24,-0.248,-0.2452,-0.2459,-0.2421,-0.2342,-0.2261,-0.2201,-0.2378,-0.2357,-0.209,-0.2091,-0.2008,-0.2002,-0.1998,-0.1993,-0.199,0,-0.1605,-0.1639,-0.1788,-0.1832,-0.1902,-0.1994,-0.2051,-0.2185,-0.2225,-0.2332,-0.233,-0.2364,-0.2386,-0.2205,-0.2241,-0.2151,-0.2127,-0.2078,-0.2094,-0.207,-0.2047,-0.2055,-0.2062,-0.1982,-0.1981,-0.198,-0.1979,0,-0.151,-0.1579,-0.1637,-0.1725,-0.1804,-0.1863,-0.1957,-0.1969,-0.2099,-0.2228,-0.2185,-0.2156,-0.2123,-0.2086,-0.2033,-0.1972,-0.2108,-0.2027,-0.2037,-0.2052,-0.2038,-0.2022,-0.2034,-0.1962,-0.1964,-0.1966,-0.1967,0,-0.1428,-0.1442,-0.1527,-0.1583,-0.1675,-0.1691,-0.1763,-0.1805,-0.1853,-0.1997,-0.1969,-0.2005,-0.2088,-0.199,-0.1934,-0.187,-0.1847,-0.1789,-0.1811,-0.183,-0.1796,-0.1753,-0.1548,0,0,0,0,0,-0.1332,-0.1331,-0.1378,-0.1427,-0.1512,-0.1551,-0.1678,-0.1758,-0.1895,-0.1814,-0.1886,-0.1841,-0.1774,-0.1801,-0.1693,-0.185,-0.1851,-0.1718,-0.1797,-0.1869,-0.1888,-0.1864,0,0,0,0,0,0,-0.127,-0.1304,-0.1318,-0.1273,-0.1277,-0.1338,-0.1405,-0.1506,-0.1478,-0.1629,-0.16,-0.1719,-0.1679,-0.1786,-0.1644,-0.1652,-0.1663,-0.1762,-0.1757,-0.1858,-0.1876,-0.1891,-0.1873,0,0,0,0,0]},{"header":{"parameterUnit":"m.s-1","parameterCategory":2,"la1":30.2991,"la2":30.254,"lo1":-89.0895,"lo2":-89.0444,"dy":0.0017,"dx":0.0017,"nx":28,"ny":28,"refTime":"2023-09-19T21:00:00:Z","depth":"4","parameterNumber":3,"parameterNumberName":"V-component_of_CURRENTS"},"data":[0,0,0,0,0,0,0,0,0,0,0,0,0,0,0,0,0,0,0,0,0,0,0,0,0,0,0,0,0,0,0,0,0,0,0,0,0,0,0,0,0,0,0,0,0,0,0,0,0,0,0,0,0,0,0,0,0,0,-0.0254,-0.0253,0,-0.0194,-0.0193,-0.0192,-0.0154,-0.0154,-0.0154,-0.0154,-0.0057,-0.0055,-0.0052,0,0,0,0,0,0,0,0,0,0,0,0,0,-0.0287,-0.0287,-0.0254,-0.0253,-0.0252,-0.0194,-0.0193,-0.0192,-0.0154,-0.0154,-0.0154,-0.0154,-0.0058,-0.0055,-0.0052,0,0,0,0,0,0,0,0,0,0,0,0,0,-0.0253,-0.0287,-0.0254,-0.0228,-0.0225,-0.0194,-0.0193,-0.0192,-0.0154,-0.0154,-0.0154,-0.0154,-0.0059,-0.0055,-0.0051,-0.0031,0,0,-0.004,-0.0038,0,0,0,0,0,0,0,0,-0.0255,-0.0252,-0.0232,-0.0229,-0.0226,-0.0183,-0.0169,-0.0137,-0.0154,-0.0179,-0.0154,-0.0154,-0.0097,-0.009,-0.0077,-0.0026,-0.0022,-0.004,-0.0037,-0.0036,-0.0035,0,0,0,0,0,0,0,-0.0258,-0.0254,-0.0228,-0.0232,-0.0228,-0.0203,-0.0198,-0.0163,-0.0138,-0.0177,-0.0175,-0.0171,-0.0095,-0.0081,-0.0075,-0.0021,-0.004,-0.0036,-0.0034,-0.0033,0.005,0.005,0,0,0,0,0,0,-0.0271,-0.0257,-0.023,-0.0227,-0.0243,-0.0203,-0.0197,-0.0196,-0.0139,-0.0131,-0.0171,-0.0169,-0.0087,-0.0079,-0.0071,-0.0043,-0.0036,-0.0032,-0.003,0.005,0.005,0.005,0,0,0,0,0,0,-0.0272,-0.0269,-0.0233,-0.0241,-0.0235,-0.0203,-0.0201,-0.0195,-0.0183,-0.0134,-0.0125,-0.0167,-0.0087,-0.0076,-0.004,-0.0039,-0.0031,-0.0027,0.005,0.005,0.005,0.0012,0,0,0,0,0,0,-0.0273,-0.027,-0.0277,-0.0242,-0.0235,-0.0223,-0.0201,-0.0193,-0.0182,-0.0179,-0.0128,-0.0119,-0.0086,-0.0046,-0.0037,-0.0034,-0.0024,0.005,0.005,0.005,0.0014,0.0011,0.0009,0,0,0,0,0,-0.0275,-0.0287,-0.0277,-0.0274,-0.0244,-0.0223,-0.0217,-0.0192,-0.0182,-0.0181,-0.0143,-0.012,-0.004,-0.0043,-0.0032,-0.0028,0.005,0.005,0.005,0.0015,0.0011,0.0009,0,0,0,0,0,0,-0.0303,-0.0283,-0.0272,-0.0277,-0.0255,-0.0218,-0.0217,-0.0197,-0.0166,-0.0164,-0.0116,-0.0104,-0.0074,-0.0047,-0.0051,-0.0006,0.0007,0.0009,-0.0024,-0.0027,-0.0029,-0.0041,-0.0021,0,0,0,0,0,-0.0314,-0.0318,-0.0289,-0.0293,-0.0286,-0.0252,-0.0241,-0.0224,-0.0192,-0.0178,-0.0141,-0.0102,-0.0065,-0.0044,-0.0011,0.0018,0.0051,0.0026,0.0023,0.0021,0.0019,0.0075,0.0077,0.005,0.005,0.005,0,0,-0.0327,-0.0315,-0.0318,-0.0299,-0.0281,-0.0275,-0.0245,-0.0235,-0.0225,-0.0172,-0.0149,-0.0111,-0.0061,-0.003,-0.0014,-0.0006,0.0045,0.0021,0.0019,0.0018,0.0075,0.0078,0.008,0.0049,0.0049,0.0049,0,0,-0.0357,-0.0345,-0.0359,-0.0342,-0.0321,-0.0298,-0.0299,-0.0264,-0.0245,-0.0218,-0.0177,-0.0136,-0.0086,-0.0044,-0.0017,-0.0013,0.0027,-0.0008,-0.0023,0.0031,0.0034,0.0037,0.0076,0.0083,-0.0006,-0.0006,-0.0006,0,-0.0374,-0.0386,-0.0359,-0.0363,-0.0355,-0.0313,-0.0322,-0.0293,-0.025,-0.0231,-0.022,-0.0133,-0.0091,-0.0038,-0.0037,-0.0017,0.0013,-0.0016,0.0028,0.0031,0.0035,0.0075,0.0083,-0.0008,-0.0008,-0.0007,-0.0007,0,-0.0407,-0.0418,-0.0424,-0.0415,-0.04,-0.0402,-0.0361,-0.0342,-0.0315,-0.028,-0.023,-0.0166,-0.0114,-0.0093,-0.0061,-0.0014,-0.0002,0.0016,0.0035,0.0036,0.0077,0.0086,-0.001,-0.001,-0.0009,-0.0009,0,0,-0.0447,-0.0451,-0.0453,-0.0465,-0.0431,-0.0426,-0.0404,-0.0373,-0.0359,-0.0304,-0.0276,-0.0201,-0.0162,-0.0129,-0.0078,-0.0026,0.0028,0.0001,0.0005,0.0038,0.0138,0.0121,0.0129,0.0055,0.0056,0.0057,0.0155,0,-0.0484,-0.0518,-0.05,-0.0525,-0.0538,-0.0491,-0.0473,-0.0433,-0.0389,-0.0349,-0.0266,-0.0222,-0.0176,-0.0151,-0.009,-0.0,0.0051,-0.0001,0.0134,0.0138,0.0121,0.0139,0.0062,0.0162,0.0164,0.0165,0.0166,0,-0.052,-0.0541,-0.058,-0.0587,-0.0587,-0.0589,-0.0557,-0.0536,-0.0456,-0.0419,-0.0349,-0.0283,-0.0192,-0.016,-0.0004,-0.004,0.004,0.0111,0.0116,0.0119,0.0137,0.0163,0.0183,0.0182,0.0181,0.018,0.0179,0,-0.0566,-0.0595,-0.0635,-0.0635,-0.063,-0.0636,-0.0626,-0.0561,-0.0543,-0.0463,-0.0436,-0.0318,-0.0257,-0.0138,0.0011,0.0003,0.018,0.0189,0.0251,0.025,0.0253,0.0249,0.0294,0.0294,0.0293,0.0293,0.0293,0,-0.0606,-0.064,-0.0668,-0.0689,-0.0729,-0.0696,-0.0712,-0.0675,-0.0618,-0.0589,-0.0482,-0.0427,-0.0247,-0.0121,0.0002,0.0156,0.0177,0.0251,0.0278,0.0234,0.0226,0.026,0.0254,0.0297,0.0296,0.0295,0.0295,0,-0.0644,-0.0663,-0.0717,-0.0743,-0.0756,-0.0782,-0.0785,-0.0785,-0.0722,-0.0679,-0.0655,-0.0499,-0.0329,-0.0151,0.0059,0.0141,0.029,0.0339,0.0274,0.0295,0.0322,0.0314,0.0407,0.0407,0.0407,0.0407,0.0407,0,-0.0665,-0.0698,-0.0768,-0.081,-0.0832,-0.0867,-0.0884,-0.0843,-0.0827,-0.0716,-0.0691,-0.0524,-0.0403,-0.0117,0.006,0.0292,0.0321,0.0382,0.0355,0.0319,0.0336,0.0328,0.0319,0.0408,0.0408,0.0408,0.0408,0,-0.0702,-0.0735,-0.0782,-0.0871,-0.092,-0.0963,-0.0977,-0.0971,-0.0898,-0.0851,-0.0698,-0.0534,-0.034,-0.0115,0.0072,0.0234,0.0332,0.0385,0.0385,0.036,0.0322,0.0337,0.0328,0.0409,0.0409,0.0409,0.0409,0,-0.0728,-0.0776,-0.0846,-0.0916,-0.0989,-0.1026,-0.1032,-0.0987,-0.0953,-0.081,-0.0761,-0.0536,-0.0391,-0.0144,0.0025,0.0187,0.0216,0.0243,0.0251,0.0252,0.0175,0.0101,0.0148,0,0,0,0,0,-0.0745,-0.0801,-0.0881,-0.0958,-0.103,-0.106,-0.1074,-0.1058,-0.0986,-0.0884,-0.0812,-0.0621,-0.0338,-0.0209,-0.005,0.0001,0.0218,0.0186,0.0247,0.0413,0.0412,0.0346,0,0,0,0,0,0,-0.0758,-0.084,-0.0882,-0.0972,-0.1025,-0.1088,-0.1096,-0.1052,-0.0975,-0.0881,-0.0721,-0.0609,-0.0331,-0.0422,-0.0052,-0.0002,0.0049,0.0332,0.0334,0.0414,0.0413,0.0412,0.0344,0,0,0,0,0]}]]